Time,TemperatureF,DewpointF,PressureIn,WindDirection,WindDirectionDegrees,WindSpeedMPH,WindSpeedGustMPH,Humidity,HourlyPrecipIn,Conditions,Clouds,dailyrainin,SoftwareType,DateUTC
2013-03-21 00:02:00,52.5,32.3,29.92,ENE,67,1.1,-999.0,46,-99.99,,,0.00,Acu-Link.com,2013-03-21 05:02:00,
2013-03-21 00:17:00,51.6,32.6,29.90,NNW,337,2.2,-999.0,48,-99.99,,,0.00,Acu-Link.com,2013-03-21 05:17:00,
2013-03-21 00:32:00,50.7,32.7,29.90,East,90,1.1,-999.0,50,-99.99,,,0.00,Acu-Link.com,2013-03-21 05:32:00,
2013-03-21 00:47:00,50.0,32.1,29.94,ESE,112,1.7,-999.0,50,-99.99,,,0.00,Acu-Link.com,2013-03-21 05:47:00,
2013-03-21 01:02:00,49.3,32.9,29.94,ENE,67,0.0,-999.0,53,-99.99,,,0.00,Acu-Link.com,2013-03-21 06:02:00,
2013-03-21 01:17:00,49.3,34.3,29.91,East,90,0.0,-999.0,56,-99.99,,,0.00,Acu-Link.com,2013-03-21 06:17:00,
2013-03-21 01:32:00,49.3,33.8,29.91,NNE,22,0.0,-999.0,55,-99.99,,,0.00,Acu-Link.com,2013-03-21 06:32:00,
2013-03-21 01:47:00,50.0,34.0,29.89,ENE,67,0.0,-999.0,54,-99.99,,,0.00,Acu-Link.com,2013-03-21 06:47:00,
2013-03-21 02:02:00,50.0,34.5,29.92,ESE,112,2.2,-999.0,55,-99.99,,,0.00,Acu-Link.com,2013-03-21 07:02:00,
2013-03-21 02:18:00,50.9,34.4,29.89,North,0,1.7,-999.0,53,-99.99,,,0.00,Acu-Link.com,2013-03-21 07:18:00,
2013-03-21 02:33:00,51.1,34.6,29.91,North,0,1.1,-999.0,53,-99.99,,,0.00,Acu-Link.com,2013-03-21 07:33:00,
2013-03-21 02:48:00,50.7,35.1,29.89,East,90,2.7,-999.0,55,-99.99,,,0.00,Acu-Link.com,2013-03-21 07:48:00,
2013-03-21 03:03:00,50.4,34.8,29.89,NE,45,2.2,-999.0,55,-99.99,,,0.00,Acu-Link.com,2013-03-21 08:03:00,
2013-03-21 03:18:00,49.6,34.6,29.88,ESE,112,1.1,-999.0,56,-99.99,,,0.00,Acu-Link.com,2013-03-21 08:18:00,
2013-03-21 03:33:00,48.4,34.3,29.88,East,90,0.0,-999.0,58,-99.99,,,0.00,Acu-Link.com,2013-03-21 08:33:00,
2013-03-21 03:48:00,47.8,34.6,29.90,ESE,112,0.0,-999.0,60,-99.99,,,0.00,Acu-Link.com,2013-03-21 08:48:00,
2013-03-21 04:03:00,47.8,35.0,29.89,ESE,112,0.0,-999.0,61,-99.99,,,0.00,Acu-Link.com,2013-03-21 09:03:00,
2013-03-21 04:18:00,47.8,35.4,29.90,East,90,1.7,-999.0,62,-99.99,,,0.00,Acu-Link.com,2013-03-21 09:18:00,
2013-03-21 04:34:00,47.7,35.7,29.89,East,90,1.7,-999.0,63,-99.99,,,0.00,Acu-Link.com,2013-03-21 09:34:00,
2013-03-21 04:49:00,48.2,35.8,29.88,NE,45,0.0,-999.0,62,-99.99,,,0.00,Acu-Link.com,2013-03-21 09:49:00,
2013-03-21 05:04:00,48.4,36.0,29.90,ESE,112,2.2,-999.0,62,-99.99,,,0.00,Acu-Link.com,2013-03-21 10:04:00,
2013-03-21 05:19:00,48.4,36.0,29.91,East,90,0.0,-999.0,62,-99.99,,,0.00,Acu-Link.com,2013-03-21 10:19:00,
2013-03-21 05:35:00,48.2,36.6,29.88,ESE,112,0.0,-999.0,64,-99.99,,,0.00,Acu-Link.com,2013-03-21 10:35:00,
2013-03-21 05:50:00,48.0,36.8,29.88,East,90,0.0,-999.0,65,-99.99,,,0.00,Acu-Link.com,2013-03-21 10:50:00,
2013-03-21 06:05:00,47.8,37.0,29.89,East,90,3.2,-999.0,66,-99.99,,,0.00,Acu-Link.com,2013-03-21 11:05:00,
2013-03-21 06:20:00,47.8,37.0,29.89,East,90,2.7,-999.0,66,-99.99,,,0.00,Acu-Link.com,2013-03-21 11:20:00,
2013-03-21 06:35:00,47.5,37.1,29.92,ENE,67,0.0,-999.0,67,-99.99,,,0.00,Acu-Link.com,2013-03-21 11:35:00,
2013-03-21 06:50:00,47.1,37.8,29.91,ESE,112,0.0,-999.0,70,-99.99,,,0.00,Acu-Link.com,2013-03-21 11:50:00,
2013-03-21 07:05:00,47.1,37.8,29.93,East,90,1.1,-999.0,70,-99.99,,,0.00,Acu-Link.com,2013-03-21 12:05:00,
2013-03-21 07:20:00,47.5,38.2,29.92,ESE,112,1.7,-999.0,70,-99.99,,,0.00,Acu-Link.com,2013-03-21 12:20:00,
2013-03-21 07:35:00,47.8,38.1,29.90,East,90,2.7,-999.0,69,-99.99,,,0.00,Acu-Link.com,2013-03-21 12:35:00,
2013-03-21 07:51:00,48.4,38.3,29.95,East,90,3.2,-999.0,68,-99.99,,,0.00,Acu-Link.com,2013-03-21 12:51:00,
2013-03-21 08:51:00,51.8,40.0,29.91,East,90,3.7,-999.0,64,-99.99,,,0.00,Acu-Link.com,2013-03-21 13:51:00,
2013-03-21 09:06:00,52.9,40.2,29.94,NE,45,6.3,-999.0,62,-99.99,,,0.00,Acu-Link.com,2013-03-21 14:06:00,
2013-03-21 09:21:00,53.8,40.2,29.95,East,90,3.2,-999.0,60,-99.99,,,0.00,Acu-Link.com,2013-03-21 14:21:00,
2013-03-21 09:36:00,54.3,39.8,29.94,ESE,112,5.3,-999.0,58,-99.99,,,0.00,Acu-Link.com,2013-03-21 14:36:00,
2013-03-21 09:52:00,55.9,40.4,29.95,East,90,4.7,-999.0,56,-99.99,,,0.00,Acu-Link.com,2013-03-21 14:52:00,
2013-03-21 10:07:00,57.4,41.4,29.91,NNE,22,6.3,-999.0,55,-99.99,,,0.00,Acu-Link.com,2013-03-21 15:07:00,
2013-03-21 10:22:00,57.7,40.7,29.95,ESE,112,6.8,-999.0,53,-99.99,,,0.00,Acu-Link.com,2013-03-21 15:22:00,
2013-03-21 10:37:00,58.3,42.2,29.93,East,90,4.2,-999.0,55,-99.99,,,0.00,Acu-Link.com,2013-03-21 15:37:00,
2013-03-21 10:52:00,59.5,42.4,29.91,NE,45,3.7,-999.0,53,-99.99,,,0.00,Acu-Link.com,2013-03-21 15:52:00,
2013-03-21 11:07:00,60.6,42.9,29.91,NE,45,6.3,-999.0,52,-99.99,,,0.00,Acu-Link.com,2013-03-21 16:07:00,
2013-03-21 11:22:00,63.1,44.7,29.94,SSW,202,1.7,-999.0,51,-99.99,,,0.00,Acu-Link.com,2013-03-21 16:22:00,
2013-03-21 11:38:00,62.2,42.3,29.88,SSE,157,2.7,-999.0,48,-99.99,,,0.00,Acu-Link.com,2013-03-21 16:38:00,
2013-03-21 11:53:00,63.1,43.6,29.91,NNE,22,4.2,-999.0,49,-99.99,,,0.00,Acu-Link.com,2013-03-21 16:53:00,
2013-03-21 12:08:00,64.6,43.9,29.90,South,180,3.2,-999.0,47,-99.99,,,0.00,Acu-Link.com,2013-03-21 17:08:00,
2013-03-21 12:23:00,66.2,43.6,29.90,ESE,112,4.7,-999.0,44,-99.99,,,0.00,Acu-Link.com,2013-03-21 17:23:00,
2013-03-21 12:38:00,66.4,43.8,29.88,ESE,112,2.2,-999.0,44,-99.99,,,0.00,Acu-Link.com,2013-03-21 17:38:00,
2013-03-21 12:53:00,65.5,43.0,29.83,ESE,112,5.8,-999.0,44,-99.99,,,0.00,Acu-Link.com,2013-03-21 17:53:00,
2013-03-21 13:08:00,66.4,43.8,29.83,ESE,112,4.2,-999.0,44,-99.99,,,0.00,Acu-Link.com,2013-03-21 18:08:00,
2013-03-21 13:23:00,65.8,43.3,29.85,West,270,2.2,-999.0,44,-99.99,,,0.00,Acu-Link.com,2013-03-21 18:23:00,
2013-03-21 13:38:00,65.5,43.6,29.85,West,270,4.2,-999.0,45,-99.99,,,0.00,Acu-Link.com,2013-03-21 18:38:00,
2013-03-21 13:54:00,66.6,44.0,29.82,East,90,5.3,-999.0,44,-99.99,,,0.00,Acu-Link.com,2013-03-21 18:54:00,
2013-03-21 14:09:00,64.9,44.2,29.80,ESE,112,3.2,-999.0,47,-99.99,,,0.00,Acu-Link.com,2013-03-21 19:09:00,
2013-03-21 14:24:00,67.6,44.9,29.79,SSW,202,1.7,-999.0,44,-99.99,,,0.00,Acu-Link.com,2013-03-21 19:24:00,
2013-03-21 14:39:00,64.2,42.4,29.80,East,90,5.8,-999.0,45,-99.99,,,0.00,Acu-Link.com,2013-03-21 19:39:00,
2013-03-21 14:54:00,63.5,41.2,29.78,ESE,112,7.3,-999.0,44,-99.99,,,0.00,Acu-Link.com,2013-03-21 19:54:00,
2013-03-21 15:09:00,63.0,42.5,29.77,SE,135,3.7,-999.0,47,-99.99,,,0.00,Acu-Link.com,2013-03-21 20:09:00,
2013-03-21 15:24:00,64.6,44.5,29.77,East,90,4.7,-999.0,48,-99.99,,,0.00,Acu-Link.com,2013-03-21 20:24:00,
2013-03-21 15:39:00,64.6,44.5,29.75,ESE,112,7.8,-999.0,48,-99.99,,,0.00,Acu-Link.com,2013-03-21 20:39:00,
2013-03-21 15:54:00,64.4,44.3,29.77,ESE,112,6.3,-999.0,48,-99.99,,,0.00,Acu-Link.com,2013-03-21 20:54:00,
2013-03-21 16:10:00,65.1,44.4,29.74,East,90,4.7,-999.0,47,-99.99,,,0.00,Acu-Link.com,2013-03-21 21:10:00,
2013-03-21 16:25:00,64.8,44.6,29.74,East,90,4.7,-999.0,48,-99.99,,,0.00,Acu-Link.com,2013-03-21 21:25:00,
2013-03-21 16:40:00,64.0,43.9,29.73,ESE,112,5.3,-999.0,48,-99.99,,,0.00,Acu-Link.com,2013-03-21 21:40:00,
2013-03-21 16:55:00,64.2,44.6,29.75,South,180,3.2,-999.0,49,-99.99,,,0.00,Acu-Link.com,2013-03-21 21:55:00,